Wind_Speed
11 9 11 12 13 16 18 20 20 18 18 19 16 13 15 13 10 11 12 12 13 11 11 12 12 12 11 10 12 14 15 15 15 15 14 14 14 14 15 14 14 15 15 18 23 24 25 25 25 24 24 25 25 24 26 27 27 28 24 24 24 22 22 23 23 22 20 19 18 17 16 15 14 14 14 13 13 12 11 11 12 13 14 14 12 11
12 11 14 16 18 19 20 21 21 20 20 20 17 13 13 12 9 10 12 13 14 10 10 14 14 13 14 12 10 11 14 15 15 15 15 16 15 13 14 15 14 13 13 17 20 22 25 26 26 25 24 25 25 25 28 28 27 28 26 24 25 24 23 24 24 23 22 20 19 17 16 15 13 14 14 13 13 12 11 11 12 13 14 13 11 11
12 13 17 19 19 19 20 20 21 22 21 18 15 14 12 9 9 10 12 13 13 8 9 14 14 12 14 14 11 10 13 13 14 15 15 15 15 14 15 14 14 13 13 15 18 20 24 26 27 25 24 25 26 26 27 28 27 28 27 26 26 27 25 25 25 24 23 21 19 17 16 15 13 13 14 13 12 11 11 10 11 12 12 12 12 11
11 13 18 20 18 20 21 21 22 21 18 15 13 13 12 11 11 8 11 15 13 11 10 12 11 10 12 14 15 16 16 12 14 16 15 15 14 14 15 14 14 15 13 14 17 19 22 24 26 25 25 26 26 26 27 28 28 28 29 28 27 28 27 26 26 25 23 21 20 17 15 15 13 12 12 13 12 11 11 12 13 13 12 12 12 12
14 14 17 19 20 21 21 21 21 17 13 16 17 15 13 14 15 10 10 14 13 14 12 11 9 8 11 13 14 16 15 14 15 17 16 15 14 14 15 15 15 15 13 14 16 18 18 20 24 26 26 27 27 27 28 29 30 29 29 30 28 28 28 27 27 26 23 21 20 18 15 14 13 12 12 13 13 13 13 13 13 13 12 11 11 12
17 16 16 19 21 21 21 19 20 16 11 15 19 20 19 18 18 13 11 11 10 11 11 10 8 7 10 14 14 12 13 14 13 15 16 14 13 14 14 14 15 15 14 14 15 16 17 19 22 25 27 27 27 28 29 30 30 29 29 30 29 28 28 27 27 27 24 22 21 20 18 16 15 14 14 14 14 14 14 13 12 12 11 10 9 10
13 18 17 19 20 22 21 18 20 20 13 11 16 20 23 23 20 14 13 12 9 9 11 12 9 7 9 12 14 13 13 13 10 13 17 14 12 14 13 12 14 16 16 15 15 16 17 19 19 22 27 28 28 28 29 29 30 29 29 30 30 29 28 27 27 28 26 24 22 21 20 18 16 15 15 15 14 13 13 12 11 12 12 11 10 10
12 19 19 19 19 19 18 16 18 21 15 11 14 19 21 23 23 18 15 13 10 9 11 15 13 8 8 9 14 16 15 15 13 13 16 15 15 16 15 14 14 15 15 14 15 15 15 17 19 22 27 29 29 28 29 29 30 30 30 31 31 30 29 28 27 29 28 25 24 23 20 19 18 16 16 16 15 14 13 12 12 13 15 13 11 11
14 18 20 20 17 14 15 16 18 21 17 13 15 18 18 20 22 20 16 12 10 9 9 14 14 9 8 8 11 16 16 14 13 13 15 15 17 17 16 17 16 15 14 14 15 16 15 17 22 25 27 29 30 28 29 29 30 31 31 31 32 30 29 29 28 29 29 27 25 24 21 19 19 17 16 16 16 15 14 14 12 13 14 14 12 11
13 15 18 19 15 13 15 18 21 21 16 15 17 18 17 18 19 18 15 11 10 9 9 13 14 8 7 8 10 13 14 14 15 16 16 17 18 16 15 16 16 14 12 13 15 16 16 18 24 26 27 29 30 28 29 30 29 30 30 30 31 31 30 29 29 29 30 28 26 24 23 21 20 18 17 16 16 16 15 14 13 13 13 14 14 12
15 14 15 15 13 13 16 17 19 20 18 17 17 16 16 15 15 14 12 11 11 10 11 14 16 12 8 9 10 11 12 14 15 16 17 20 21 17 14 15 17 14 12 13 14 14 16 19 23 25 27 29 30 29 29 29 29 29 30 31 32 32 30 30 30 30 30 29 27 26 24 23 21 20 19 17 17 17 17 16 16 16 15 14 14 13
19 16 12 12 15 16 16 15 16 19 20 18 14 12 12 11 11 10 10 12 12 10 12 17 19 17 11 8 10 12 15 17 17 16 18 21 21 16 14 16 15 12 11 12 12 12 14 15 17 22 25 28 30 30 29 30 30 30 31 31 32 32 31 30 31 31 30 29 28 26 25 24 23 22 21 19 18 18 19 18 17 17 17 15 14 14
16 17 15 13 15 18 16 12 14 17 17 16 12 11 10 8 8 9 9 10 11 11 14 18 19 16 11 10 12 15 17 19 18 15 17 20 19 16 14 14 12 11 12 12 11 10 11 13 15 18 23 27 29 31 31 31 31 30 31 33 32 32 32 31 32 32 31 30 28 27 26 25 24 23 22 21 20 19 20 20 19 19 19 18 16 14
11 15 19 16 13 16 17 12 11 13 12 13 13 11 10 9 8 10 10 10 10 12 16 18 16 12 11 10 15 18 17 17 17 16 16 16 16 14 13 13 13 14 14 12 11 11 11 13 15 17 21 26 29 32 32 32 32 31 31 33 33 33 33 32 32 32 32 31 29 28 28 26 26 25 23 22 21 21 21 21 20 20 20 19 18 16
12 12 16 17 10 13 18 15 12 12 12 14 14 13 12 10 9 9 9 9 10 10 13 16 13 10 9 7 13 18 17 15 15 15 14 12 13 14 13 15 16 16 15 12 11 13 14 15 16 18 21 25 29 32 33 32 32 31 31 33 34 33 34 34 33 33 33 32 31 29 29 27 26 26 24 23 22 22 22 22 22 21 20 20 19 18
14 11 13 19 16 15 18 17 15 13 12 12 14 14 13 12 10 9 9 11 11 11 10 11 10 8 9 7 9 12 15 16 16 14 15 14 15 16 15 16 16 16 16 15 14 14 16 16 16 19 23 25 29 32 33 33 33 32 31 33 35 34 35 35 34 34 34 33 31 30 30 28 27 27 25 24 24 23 23 23 23 22 21 21 20 19
12 10 13 20 21 21 18 16 17 15 11 9 12 14 13 13 13 10 10 11 11 12 9 9 10 9 10 10 10 11 13 15 16 16 16 16 16 16 16 17 17 16 16 16 15 15 16 16 16 22 27 27 29 32 34 34 35 35 34 34 35 35 34 35 36 35 34 33 32 31 31 29 28 28 26 25 25 24 23 23 24 24 22 22 22 22
10 9 12 19 21 22 19 17 19 19 16 11 10 13 13 14 14 10 8 9 11 11 9 11 13 11 10 8 11 16 15 14 16 17 16 15 16 16 16 18 18 18 16 15 15 15 16 16 16 22 29 31 32 34 35 36 36 36 35 35 36 35 35 36 36 36 35 33 32 31 32 31 30 29 27 26 26 26 25 24 25 25 23 22 23 23
10 8 10 18 19 18 19 17 16 19 22 19 13 12 12 12 12 10 8 8 11 11 8 12 14 12 12 8 10 16 17 14 15 16 16 17 16 14 14 19 19 18 17 16 15 13 14 16 17 22 28 32 33 34 35 36 36 35 35 35 35 36 37 37 36 35 35 34 32 31 33 33 31 30 29 27 27 27 27 26 26 26 25 24 24 24
10 8 8 13 17 16 15 14 13 14 19 21 17 13 11 10 10 10 9 7 9 10 9 12 13 10 11 10 11 15 17 16 14 14 15 16 17 15 13 17 18 17 16 16 15 14 15 18 20 24 29 31 32 32 33 35 36 36 35 35 35 35 36 36 35 35 35 34 33 31 33 34 32 32 31 29 28 28 28 28 27 27 27 27 27 26
10 8 8 9 14 15 12 12 15 13 13 15 15 14 12 9 9 10 11 9 9 9 8 10 11 8 8 10 12 12 14 17 15 12 11 12 16 17 14 18 19 17 16 14 14 15 17 18 20 24 28 29 30 31 33 35 36 37 36 35 36 36 36 35 35 36 36 35 34 33 33 34 34 33 32 31 30 29 29 28 29 29 28 29 29 29
9 8 9 9 10 13 13 15 18 17 14 13 12 14 14 11 10 11 11 11 11 9 8 9 9 8 8 8 8 8 10 16 16 14 13 14 17 18 14 16 18 14 13 13 14 15 15 15 16 20 25 27 29 31 34 35 36 37 37 36 36 36 36 36 35 36 36 35 34 34 34 34 35 35 33 32 31 30 30 30 30 30 29 30 31 31
11 8 9 11 10 12 15 18 19 20 19 16 14 15 15 14 12 10 9 9 10 11 12 12 10 8 7 5 6 7 8 13 15 15 16 17 17 18 16 13 17 15 13 14 15 14 13 12 13 16 21 26 28 31 33 34 35 37 38 37 37 36 36 36 35 35 36 35 35 35 35 34 35 35 34 33 32 31 30 30 31 31 30 30 31 31
11 8 9 9 9 12 15 16 18 20 19 16 14 15 15 17 16 13 10 8 10 13 14 11 9 10 8 5 5 4 5 12 14 15 16 16 15 19 18 13 16 16 14 14 14 14 13 12 12 13 16 21 25 28 31 33 34 36 37 37 37 37 37 36 34 34 35 36 35 35 35 35 35 35 34 33 32 32 30 30 31 32 32 31 30 31
10 9 9 9 8 9 12 14 15 17 16 12 12 15 17 20 23 19 13 9 9 13 15 11 8 10 9 5 4 5 7 12 13 11 13 12 12 14 12 11 15 14 13 14 15 14 14 13 13 13 13 16 21 25 28 31 31 32 35 37 37 37 37 37 34 33 35 35 34 35 36 36 35 34 35 34 31 31 31 30 30 31 32 32 30 31
11 9 9 10 11 11 11 10 10 12 12 11 13 18 19 22 24 20 13 10 9 10 13 12 8 7 9 9 9 9 9 9 9 9 12 11 8 6 5 12 15 14 15 16 15 15 15 14 14 15 13 15 21 24 26 29 30 31 33 35 36 35 36 36 35 34 34 34 34 35 36 37 35 34 35 35 32 31 32 31 30 30 31 31 31 30
9 9 12 12 12 11 10 10 10 12 13 14 17 21 21 22 23 18 12 11 10 8 9 9 8 7 10 14 15 14 13 9 8 8 10 7 7 4 5 11 12 11 12 14 12 12 13 12 14 16 15 15 21 26 26 29 30 30 31 33 34 34 35 36 36 35 35 34 34 35 36 37 37 35 34 35 34 32 32 32 31 30 31 31 30 30
7 11 16 18 18 18 14 14 16 16 16 17 19 21 21 22 23 20 16 14 12 9 10 9 8 9 12 14 13 12 14 12 6 7 6 2 3 4 6 10 12 12 13 11 9 11 11 11 13 15 15 15 20 25 26 28 31 30 30 32 33 32 33 35 35 36 35 34 33 35 36 36 36 35 34 35 35 33 32 32 31 31 32 32 30 30
7 11 15 18 22 24 22 20 20 17 16 18 19 20 21 22 23 21 18 18 15 11 11 10 8 9 11 16 17 10 10 11 8 9 8 6 4 4 6 11 10 10 13 12 11 11 11 10 10 12 13 13 16 21 23 25 29 30 29 31 33 32 32 34 35 35 35 34 33 34 35 34 34 34 34 34 34 34 33 32 32 31 31 33 32 31
7 8 11 15 17 22 25 24 23 20 17 17 20 21 20 21 23 22 20 22 22 18 16 14 12 12 12 15 19 15 10 10 6 7 10 11 10 9 8 11 10 7 9 10 10 10 9 9 10 11 12 12 13 17 21 22 26 29 28 30 32 33 32 35 35 34 34 34 33 32 32 32 32 33 34 33 34 34 33 32 31 30 30 32 33 32
8 7 11 13 11 15 22 24 25 24 19 18 20 20 20 20 22 22 20 20 20 18 18 18 16 14 11 12 16 16 13 12 9 7 10 11 13 14 13 12 14 15 13 11 11 10 9 9 10 11 12 13 14 17 20 21 24 27 27 28 31 33 32 34 35 34 34 34 32 31 31 32 32 31 33 33 32 33 32 31 29 29 28 29 31 31
10 8 10 10 9 12 16 20 24 23 21 21 21 21 23 22 20 19 17 16 17 16 15 16 15 11 10 11 12 12 13 15 15 13 11 9 10 15 15 15 14 16 15 13 13 13 13 13 13 14 14 14 15 19 21 21 22 24 27 29 31 32 31 32 34 34 33 33 32 31 31 31 31 30 31 31 29 29 29 28 27 26 26 26 27 30
11 9 9 9 9 11 15 17 18 17 17 17 18 20 22 21 20 18 14 15 18 17 13 12 10 7 7 10 11 12 14 15 14 13 11 9 9 9 10 13 13 11 13 14 14 14 15 15 14 15 16 16 18 23 26 25 24 25 27 28 31 32 30 31 32 32 32 31 30 30 30 30 30 28 27 27 25 25 25 25 24 23 23 23 24 27
13 12 9 9 9 10 15 16 14 14 14 11 11 16 20 21 22 20 18 19 20 17 13 12 12 12 10 9 10 12 12 11 9 9 10 10 7 6 7 10 11 10 11 13 15 15 15 14 14 15 17 20 24 27 28 27 26 26 26 26 28 31 29 28 30 30 30 29 28 29 28 28 28 26 25 25 24 23 23 24 24 23 23 23 24 26
14 13 9 9 9 9 12 14 14 14 12 9 9 12 17 21 23 22 20 20 20 17 11 7 9 12 11 11 11 11 11 11 10 8 10 12 11 10 10 10 9 9 7 8 13 16 15 14 13 14 17 22 26 26 26 27 26 26 27 26 28 30 28 27 28 28 28 28 27 28 27 27 27 26 25 25 24 23 23 24 24 23 22 22 21 22
11 11 10 9 9 9 9 12 13 10 9 11 14 14 13 16 19 21 21 19 20 19 10 6 8 7 6 10 13 12 13 15 14 10 9 13 14 14 15 14 12 12 10 7 9 13 16 16 16 18 20 22 25 25 26 27 27 26 27 27 27 28 27 26 26 26 27 27 27 28 28 27 27 26 25 25 24 22 21 22 22 21 21 20 18 20
7 8 9 10 10 9 9 11 10 8 10 12 12 8 6 6 7 8 10 10 12 12 5 7 8 10 11 10 6 4 8 12 13 11 13 18 18 17 18 18 16 15 13 11 10 9 16 21 21 23 24 24 25 27 27 28 28 27 27 27 27 27 26 25 25 26 26 27 27 28 27 26 25 24 24 24 23 20 19 19 19 19 19 19 17 18
9 8 7 8 9 9 9 11 10 10 11 9 5 3 1 2 2 3 2 3 4 6 8 7 7 8 10 11 9 9 8 7 7 8 14 21 21 19 20 20 20 20 16 13 15 13 16 23 24 25 28 27 26 28 28 28 28 27 26 26 27 27 26 24 24 25 25 25 25 25 25 24 23 22 22 22 21 19 17 16 17 17 18 18 16 17
13 9 5 7 9 10 10 11 10 10 9 6 6 7 4 2 4 5 2 3 3 8 8 6 6 7 8 10 10 8 6 7 7 6 9 16 17 16 17 18 20 22 18 15 15 13 14 22 26 27 28 26 25 28 30 29 29 27 25 26 28 27 25 24 25 25 24 23 23 23 23 23 22 21 21 21 21 20 19 18 18 17 18 18 17 16
13 9 7 8 8 9 10 9 8 7 5 5 7 8 7 5 4 2 5 4 4 8 8 7 7 6 7 9 9 7 5 5 7 9 11 10 9 12 14 12 12 14 14 14 11 5 11 16 19 20 21 22 25 29 31 30 28 26 25 26 27 26 25 25 26 25 24 24 24 24 24 24 24 24 23 23 22 21 20 20 18 17 17 17 17 15
10 9 9 10 9 8 9 8 7 6 5 8 8 7 6 5 4 6 6 1 4 6 7 7 7 7 7 7 6 5 6 7 8 12 16 16 13 12 10 5 7 8 11 15 11 14 16 14 15 16 18 22 26 28 28 28 25 23 23 24 24 24 25 27 27 27 26 26 26 25 25 25 26 25 23 23 22 20 19 19 17 16 17 16 15 15
10 8 8 9 10 9 8 9 8 6 5 9 11 10 8 5 5 5 2 3 4 6 8 9 9 9 9 8 7 7 9 12 13 14 15 17 14 10 7 4 8 10 12 11 13 19 16 13 15 18 19 22 25 26 27 26 23 21 22 21 21 24 27 29 29 29 28 28 27 26 24 24 23 22 20 21 21 19 19 18 16 16 17 15 15 16
8 10 10 9 9 8 9 10 9 6 6 10 11 11 8 5 1 2 3 4 4 7 9 8 9 10 10 9 9 10 11 13 14 13 14 17 13 7 6 5 3 5 5 2 9 16 15 11 12 16 19 23 25 26 27 26 23 22 21 20 21 25 28 29 30 29 28 27 26 24 22 22 21 19 18 18 19 18 18 16 15 16 17 16 16 17
4 4 7 7 6 8 9 9 7 5 7 9 9 6 4 3 5 5 4 4 6 7 8 7 9 11 11 11 11 12 11 11 12 11 12 15 13 5 3 5 2 3 2 2 5 11 13 10 10 14 18 22 24 25 26 26 23 21 20 21 24 28 29 30 30 28 27 26 25 24 23 23 21 19 18 18 17 16 16 15 15 16 17 17 17 18
6 7 5 4 2 2 2 2 2 3 4 5 7 7 7 8 8 6 5 5 5 6 8 8 9 12 14 13 11 10 10 11 12 13 15 14 14 12 10 8 6 2 4 5 6 9 10 10 10 13 15 19 22 24 25 25 24 21 20 24 28 30 30 31 30 28 27 26 25 24 24 23 21 19 19 19 17 15 16 16 14 16 18 18 18 17
7 10 9 6 2 3 6 8 8 5 2 6 9 8 8 9 8 8 7 6 5 6 8 9 10 12 14 14 12 11 11 13 14 14 14 15 14 16 16 15 12 10 6 1 3 9 13 13 12 12 13 17 22 23 22 24 25 23 24 27 29 29 29 30 29 27 26 25 24 24 24 23 22 20 19 18 17 15 16 16 15 15 18 18 15 13
6 9 8 5 2 2 4 9 13 14 10 4 8 8 10 12 11 9 9 9 9 11 11 12 13 13 14 14 13 12 13 14 14 11 11 12 12 13 14 13 14 15 15 15 14 6 5 9 10 12 12 14 20 23 25 26 25 25 27 28 28 27 29 29 27 25 24 24 23 23 23 22 22 22 20 20 19 17 16 15 15 15 17 16 12 11
4 6 6 5 3 5 5 8 12 12 13 11 10 10 11 14 14 13 13 13 14 15 15 16 16 15 15 14 13 12 13 15 14 12 11 11 10 9 9 9 11 13 14 19 25 22 12 8 6 7 8 10 16 23 25 26 26 26 27 26 25 26 27 26 24 23 22 21 20 19 19 19 20 20 18 18 19 18 16 14 14 15 15 15 14 14
5 6 6 5 1 7 7 8 9 8 9 12 14 12 12 14 15 15 16 16 16 17 17 17 17 16 16 16 16 15 14 13 13 12 11 9 8 7 6 5 7 10 10 9 12 12 10 8 5 5 7 10 16 21 22 23 24 23 24 24 24 25 25 24 22 21 19 18 17 16 17 18 18 17 17 17 17 16 15 13 12 12 12 13 16 16
5 4 4 2 3 6 6 4 5 4 1 5 11 14 14 13 14 15 16 16 16 15 15 16 17 17 18 19 18 17 15 13 11 11 11 9 9 9 8 7 5 7 7 3 1 5 8 7 6 10 13 15 19 21 21 22 22 22 22 22 21 23 24 22 21 20 18 17 16 16 16 16 15 15 19 19 17 17 15 12 10 9 9 9 13 14
3 3 4 2 3 6 6 5 4 5 5 4 8 11 11 10 13 15 15 15 14 14 14 15 15 15 16 17 18 18 17 15 14 14 12 8 8 7 6 7 5 2 7 6 6 7 10 11 12 15 17 17 18 19 20 21 21 20 20 19 18 20 21 20 18 17 15 15 17 17 16 14 14 17 19 19 18 18 17 14 10 8 6 5 8 11
Wind_Direction
206 210 212 216 219 218 218 221 228 231 232 241 241 230 226 224 219 206 207 200 188 210 212 204 217 197 197 212 185 181 187 186 190 184 184 187 184 184 185 190 187 184 187 184 189 195 190 188 189 187 185 186 187 182 177 177 178 183 185 183 186 188 184 183 182 185 190 192 193 196 201 204 205 207 210 212 216 220 215 211 215 214 213 215 219 224
206 220 219 216 220 223 223 223 226 233 233 239 248 246 235 231 228 213 216 207 188 205 213 201 217 208 193 194 188 198 195 189 194 190 188 189 185 184 186 190 190 187 189 183 185 194 193 189 189 186 184 186 186 181 178 178 179 182 186 184 184 188 187 186 186 187 191 194 194 196 199 201 201 202 207 211 214 218 214 208 209 209 210 214 222 222
207 224 223 218 219 222 227 226 223 229 232 235 243 252 248 233 227 219 229 223 187 193 223 203 212 217 200 186 169 201 215 198 197 197 192 190 186 184 185 188 192 191 191 187 183 191 196 192 190 185 183 188 189 185 181 180 180 182 186 187 184 187 189 188 190 190 193 195 196 198 198 200 201 201 206 211 214 216 213 205 206 215 214 214 222 214
211 220 222 221 218 218 224 225 223 225 229 236 236 243 252 242 234 212 219 234 204 187 219 211 210 221 213 196 175 193 215 207 202 204 197 192 188 184 185 185 192 194 189 190 187 188 196 194 190 185 183 188 189 188 184 181 182 184 188 188 185 187 189 189 191 192 193 195 196 199 200 200 201 204 206 207 210 212 211 206 210 223 221 212 214 205
228 220 215 220 220 218 222 223 225 226 222 231 234 236 245 245 245 222 204 232 217 192 211 218 216 221 219 216 199 192 204 211 208 205 201 197 189 184 187 187 189 194 189 191 195 190 191 195 191 185 183 188 190 189 188 185 185 186 188 189 187 187 189 191 192 192 192 192 195 198 199 200 202 206 206 202 202 204 208 206 205 213 216 208 205 199
235 227 211 215 219 219 221 221 222 226 224 227 230 234 241 245 245 231 212 227 216 193 204 215 225 225 213 221 222 196 190 209 217 210 204 197 187 183 191 190 182 190 193 190 198 196 190 194 192 184 182 189 192 191 190 189 188 188 188 189 187 187 189 191 192 191 190 191 193 194 194 195 198 201 204 203 200 200 204 203 199 206 214 207 199 194
232 230 219 214 216 217 221 223 219 221 230 228 223 228 237 247 250 236 220 225 216 194 196 206 222 234 214 218 226 209 186 196 217 224 215 201 190 186 191 194 183 190 196 190 197 201 193 192 193 186 184 190 194 192 191 190 190 189 188 188 188 188 188 190 191 191 189 190 193 193 193 196 196 196 201 204 203 200 199 199 201 204 203 196 193 193
223 227 228 217 214 217 218 222 218 218 228 233 225 225 227 239 250 245 229 227 221 202 199 209 220 236 229 215 222 217 197 193 206 224 223 207 196 195 193 194 193 196 194 187 193 200 196 191 194 193 186 190 196 193 190 191 190 189 188 188 189 188 188 189 190 190 190 191 192 193 195 197 197 197 199 201 201 200 197 198 200 197 192 189 189 192
221 224 229 221 214 219 221 220 219 219 225 231 232 233 227 228 241 251 248 237 221 205 201 209 213 233 242 217 221 220 204 198 203 217 231 222 205 200 197 194 196 199 193 187 190 196 198 191 193 196 189 190 196 194 191 191 190 189 188 188 189 189 188 188 189 190 192 193 192 193 194 196 197 199 198 196 197 198 196 194 191 183 179 180 180 183
228 221 226 229 220 219 223 221 221 222 225 228 232 240 240 230 229 236 248 254 241 225 221 215 205 218 248 227 223 224 210 204 205 204 217 225 215 202 197 196 198 197 189 190 193 193 196 193 193 197 193 191 195 195 191 191 191 189 187 187 189 189 189 188 189 190 192 194 194 193 194 195 195 196 196 195 192 193 193 190 186 178 172 171 174 178
246 228 218 229 231 228 226 222 222 224 225 227 229 237 244 243 236 227 227 241 248 243 241 235 214 202 228 231 221 227 219 214 214 203 201 213 213 200 194 202 202 194 183 189 199 193 186 189 193 197 197 193 193 195 192 190 191 189 187 188 188 190 190 188 189 190 191 194 195 194 194 194 194 193 193 194 190 187 187 188 186 181 177 174 176 180
244 240 220 214 227 235 230 223 226 224 221 224 224 227 234 242 250 245 229 225 235 244 245 246 233 214 218 226 217 223 219 216 221 213 202 206 205 194 194 204 201 191 184 186 195 191 176 178 190 198 200 194 190 193 193 192 192 189 188 188 187 189 190 189 189 190 191 193 195 195 194 194 195 193 191 192 190 184 183 187 185 180 179 181 182 181
229 239 236 214 214 231 228 213 223 224 217 220 220 220 224 226 233 240 241 229 225 230 229 237 241 231 230 227 217 223 220 215 219 215 208 207 201 191 190 193 187 186 196 194 190 187 173 172 187 198 198 191 189 192 193 193 193 190 188 188 188 188 189 189 189 189 191 193 195 194 193 194 195 194 192 191 190 187 184 185 184 181 180 181 182 182
217 226 235 226 205 219 227 212 213 217 208 213 216 215 217 218 220 224 233 238 230 227 225 230 240 242 240 225 213 221 223 217 217 210 208 207 193 178 175 184 186 190 199 200 188 181 176 178 188 196 195 190 189 191 192 193 193 191 188 187 188 188 188 189 188 188 191 193 195 194 193 194 195 195 194 192 191 191 189 185 185 184 183 182 182 184
220 216 220 226 209 201 218 220 217 214 210 213 216 220 222 219 223 224 225 234 237 239 234 229 233 240 245 219 200 215 220 215 216 210 202 192 177 174 181 192 196 194 195 198 193 185 185 189 189 194 197 191 189 190 192 194 193 191 189 187 188 188 188 189 188 188 191 194 195 195 194 195 196 196 195 194 192 192 192 189 186 186 187 186 184 186
227 227 205 213 219 208 209 214 219 224 221 212 211 221 224 218 223 235 236 234 235 241 241 233 227 225 234 219 192 210 218 210 209 209 200 188 184 188 187 189 194 195 194 195 196 192 191 194 188 193 199 193 187 189 192 193 191 190 189 187 188 189 188 189 189 189 192 194 194 194 195 195 196 196 195 195 195 193 193 191 189 189 190 188 187 187
223 232 205 203 214 216 210 205 210 222 230 213 209 219 223 218 222 236 243 239 238 240 237 237 235 224 227 222 203 210 223 217 209 208 206 195 192 191 181 185 192 192 194 194 195 194 192 194 192 194 198 192 187 189 192 193 192 190 189 187 188 189 190 191 190 190 193 194 193 193 194 195 196 196 196 196 195 194 194 192 191 192 191 189 188 187
227 237 213 203 210 210 205 205 208 217 232 232 212 210 216 221 222 232 239 228 234 243 237 234 239 236 236 224 196 198 209 217 208 203 206 196 194 199 183 179 186 185 189 194 194 193 190 194 199 197 197 194 191 191 192 193 192 191 190 188 187 188 190 192 191 192 193 193 193 193 194 195 197 196 196 196 196 194 193 192 192 192 191 190 188 186
228 244 220 207 210 201 193 204 212 212 223 237 237 211 207 217 216 222 234 221 226 240 236 233 234 235 240 231 196 192 193 203 201 195 202 195 194 207 182 168 178 184 188 191 190 190 187 194 203 199 196 196 194 191 191 192 191 191 191 189 189 190 191 192 192 192 193 193 193 193 194 196 197 197 197 197 196 195 194 194 194 193 192 192 190 188
224 241 236 209 202 194 186 199 214 208 211 229 243 232 215 219 218 219 229 223 225 236 236 235 234 232 238 238 224 204 184 186 194 192 200 198 199 210 183 165 179 188 187 186 183 184 187 195 203 200 197 197 195 190 190 192 192 193 192 190 190 191 192 192 192 192 193 194 194 194 195 196 197 197 198 197 196 195 196 196 195 194 193 193 192 190
224 230 242 217 196 196 194 197 208 209 204 213 232 237 224 213 214 221 227 220 220 236 237 234 236 232 232 237 241 227 182 173 185 187 194 205 210 217 197 176 181 184 181 180 179 184 188 193 200 199 196 198 197 191 191 193 194 194 193 191 191 192 192 192 192 193 193 193 194 195 195 196 197 198 198 198 198 197 197 197 196 195 194 194 192 191
222 223 232 230 208 205 206 199 201 208 212 209 214 230 232 220 212 218 223 216 213 227 234 238 245 239 230 230 239 233 180 171 185 187 190 208 219 231 224 181 169 173 176 176 179 186 188 189 195 195 192 195 197 195 194 194 193 194 194 193 192 192 193 193 192 193 193 193 194 195 195 196 197 198 199 199 199 198 197 198 198 197 195 194 193 193
215 223 226 230 229 227 215 198 197 204 214 221 216 217 228 231 225 222 220 214 214 223 228 235 244 242 240 238 238 234 182 176 194 192 193 205 210 228 235 186 161 171 179 178 180 182 185 188 191 192 188 190 197 196 194 194 193 193 193 192 191 192 192 193 193 192 192 193 194 196 196 196 197 198 198 199 199 198 197 198 199 199 196 195 194 195
205 221 225 224 232 246 233 204 197 203 209 222 225 214 218 226 230 233 228 214 218 226 225 225 229 234 244 250 251 254 188 185 198 192 195 206 201 212 224 192 166 173 172 171 179 184 188 187 186 190 186 189 197 195 192 194 194 192 192 191 191 192 192 193 192 190 191 192 195 196 196 195 196 196 195 197 198 198 198 198 198 199 198 196 195 196
194 215 220 217 217 232 233 210 198 206 207 214 225 222 219 222 226 234 236 223 222 227 225 227 227 219 224 241 263 264 217 199 199 197 204 215 209 210 208 168 160 166 165 172 181 183 185 185 187 192 187 187 194 193 192 193 194 193 192 192 192 191 192 192 191 189 189 190 192 194 196 196 195 195 195 196 197 197 198 198 197 198 199 198 197 196
193 205 208 217 217 210 218 216 198 201 207 210 220 226 228 223 223 229 235 235 231 224 224 233 242 215 200 215 233 242 234 200 184 211 226 216 207 210 152 142 157 164 166 175 178 178 180 183 187 188 185 186 190 191 191 191 194 196 195 194 193 191 190 191 190 189 187 188 190 193 196 197 196 195 196 197 197 197 198 199 198 197 198 199 197 195
203 209 206 215 230 223 218 223 215 203 205 209 211 219 229 229 225 224 228 236 235 232 235 240 255 244 215 213 215 215 228 224 180 206 236 206 174 180 132 141 158 160 165 173 173 173 177 177 181 183 183 186 188 190 190 189 193 197 196 196 195 191 189 190 190 189 187 188 192 193 195 197 197 196 196 198 199 199 199 201 199 198 199 199 197 195
221 220 210 209 224 237 235 228 226 216 210 216 212 212 223 230 229 225 223 232 236 236 238 233 242 252 241 241 234 203 212 234 199 184 238 249 170 188 144 145 161 163 163 169 168 171 175 173 175 181 183 183 186 189 189 189 193 196 196 196 195 192 190 190 190 189 187 190 193 194 196 197 198 197 197 199 201 201 201 202 202 200 199 198 199 200
238 231 222 216 216 227 235 237 237 229 217 219 219 213 215 223 232 235 228 226 230 238 238 225 222 233 238 252 259 238 214 229 203 174 205 226 229 227 151 145 162 169 163 164 169 172 176 173 169 176 181 181 184 187 188 190 192 195 197 195 195 194 190 189 190 189 188 190 194 195 196 196 196 197 198 199 201 202 202 202 202 202 199 197 199 202
240 231 232 238 225 218 226 233 242 245 234 228 228 222 217 216 222 232 239 233 230 235 239 237 238 236 229 239 254 263 262 251 223 182 193 198 204 224 198 160 161 181 179 171 171 173 174 173 169 172 176 178 183 188 191 191 192 194 196 193 193 195 192 188 189 188 188 191 194 194 194 194 195 196 198 199 200 202 202 201 201 203 201 198 197 200
228 225 219 238 246 229 222 222 231 243 246 245 244 236 234 234 222 218 228 236 239 240 234 230 238 243 234 230 239 249 258 263 262 243 221 202 193 209 223 204 186 189 187 173 168 174 180 178 172 171 175 179 184 189 193 195 195 196 196 192 192 194 192 187 187 188 189 191 192 192 191 191 193 195 196 198 199 200 201 200 201 202 201 198 197 200
213 226 220 224 241 241 231 221 221 229 237 244 247 238 234 240 236 224 220 225 235 248 244 231 231 234 230 229 233 236 242 250 256 255 251 238 212 208 219 226 212 191 176 170 173 179 183 182 178 177 181 183 183 187 193 195 195 198 198 193 192 193 191 187 186 188 189 190 190 189 189 189 191 193 195 196 196 196 197 199 199 200 200 199 200 202
212 221 222 222 231 234 235 233 227 227 230 233 238 238 235 237 239 240 242 234 228 233 243 244 244 246 237 232 232 232 233 237 240 247 254 254 243 228 221 224 223 196 173 176 184 181 181 184 183 182 184 184 183 187 192 192 192 199 202 196 191 191 190 186 185 186 187 188 187 187 187 187 187 189 190 191 191 191 192 193 194 195 197 200 204 206
210 216 216 221 232 230 231 236 237 235 235 230 227 232 239 244 244 240 238 238 233 227 225 231 236 238 236 236 242 243 244 245 234 230 243 252 255 265 256 239 231 216 191 183 183 181 181 185 185 183 183 184 186 189 190 191 192 197 202 199 192 191 189 184 183 184 184 183 184 184 184 183 184 184 184 184 185 185 186 189 191 193 198 204 209 209
201 211 216 218 228 229 224 227 231 232 234 245 247 237 234 241 250 252 245 241 242 238 234 247 249 239 231 230 240 251 260 269 265 242 240 251 252 251 254 251 244 241 225 188 179 179 181 183 181 182 184 184 185 186 186 189 191 192 196 197 193 191 190 183 179 180 180 179 179 180 180 180 181 180 179 179 181 183 185 186 188 192 198 205 210 209
202 210 213 212 219 223 218 218 227 239 244 244 245 243 236 233 240 249 250 248 249 246 251 315 319 310 290 247 230 230 237 244 252 252 247 253 258 257 255 253 252 254 252 231 198 180 178 182 181 180 183 181 180 182 185 186 187 188 191 193 191 191 188 180 175 176 177 176 176 177 177 178 178 176 176 176 177 182 185 185 186 193 200 203 205 204
224 227 218 216 214 213 223 224 228 248 251 240 235 234 243 244 236 241 248 256 266 270 303 346 336 344 338 309 279 279 264 241 231 227 230 239 247 253 257 260 262 262 259 254 250 215 182 182 182 177 174 174 177 181 184 185 183 183 186 187 188 188 183 176 172 174 176 176 175 176 176 175 175 173 172 172 174 180 184 183 186 195 200 199 197 197
239 237 233 238 219 200 219 231 227 233 233 224 210 177 107 352 31 47 356 296 315 357 18 358 327 334 339 333 346 359 340 298 253 224 222 227 229 235 246 252 255 258 257 249 249 238 197 182 178 172 169 171 178 181 180 180 179 179 182 183 184 183 179 175 173 173 175 176 174 173 174 173 172 170 166 167 173 180 185 185 188 194 197 197 196 196
243 234 242 259 231 199 210 226 225 230 228 205 185 168 134 58 56 58 322 265 34 35 29 11 341 338 347 346 346 351 345 319 300 276 242 229 223 229 239 239 239 242 243 242 245 239 202 181 171 167 167 169 175 179 176 175 176 177 179 181 180 179 177 175 174 173 172 171 168 169 170 169 168 167 166 169 177 183 184 185 189 192 192 195 199 200
238 227 222 240 233 210 214 226 230 233 215 161 164 164 145 114 95 137 231 234 41 29 23 24 9 357 359 352 342 332 317 303 302 306 299 280 256 253 254 253 250 237 226 236 241 176 149 162 160 158 165 169 173 177 174 171 173 176 178 179 178 177 175 171 170 168 166 164 163 164 165 165 166 168 171 174 178 181 181 182 188 190 186 191 200 202
234 231 218 220 227 221 216 224 241 240 188 162 173 174 146 131 162 207 217 198 29 14 16 13 357 358 2 352 341 326 313 311 311 312 312 308 297 282 273 297 334 306 252 235 206 143 136 151 155 158 168 170 173 176 172 168 169 173 176 177 176 174 170 164 161 161 159 159 160 161 163 165 167 168 170 173 175 175 175 179 186 185 180 184 194 195
224 225 219 215 220 221 217 225 239 237 194 184 185 171 155 168 210 213 167 85 32 14 17 6 352 356 357 346 336 319 313 318 320 321 317 308 309 321 322 343 10 341 290 241 172 147 148 157 160 167 172 169 171 173 167 162 163 168 172 175 172 167 162 157 155 154 153 154 156 159 160 160 162 162 163 167 170 168 169 175 179 177 175 178 184 187
228 219 218 215 215 217 218 223 229 226 209 204 193 178 181 202 191 71 67 71 49 26 17 8 2 360 349 339 332 320 317 318 317 324 322 305 305 344 343 312 15 28 335 314 134 143 151 155 162 171 170 168 171 169 161 157 160 165 169 168 162 157 151 148 147 147 147 148 149 150 150 149 152 155 156 161 166 165 166 170 170 171 176 178 176 178
307 251 228 213 212 219 221 222 225 237 234 216 193 171 164 103 67 53 35 44 47 33 19 11 10 3 349 336 323 314 314 312 309 323 332 314 306 323 324 291 277 134 138 109 130 147 151 153 164 166 164 168 167 160 155 157 159 159 158 152 147 144 140 139 140 141 141 142 141 141 143 145 149 153 154 158 164 165 166 169 167 169 178 180 176 177
359 348 296 256 232 219 264 289 248 206 204 174 137 114 102 85 66 52 55 58 51 41 33 23 15 11 4 353 339 329 329 331 335 349 359 353 348 353 352 334 317 272 160 148 152 155 155 159 163 157 154 154 150 147 151 156 153 148 142 138 137 136 135 135 137 137 138 140 139 139 142 144 148 151 152 157 162 160 160 163 161 162 170 176 174 176
347 338 315 295 313 44 37 19 21 30 67 129 125 113 106 93 63 45 57 63 56 57 55 46 37 29 23 18 14 11 10 10 12 12 7 4 9 12 9 4 358 357 3 24 173 164 159 157 154 146 139 134 132 134 141 143 138 132 129 130 132 132 132 133 134 135 137 138 139 141 143 145 149 151 151 155 158 157 160 166 164 163 170 175 176 181
332 329 326 325 340 69 45 19 18 11 2 48 102 91 86 89 77 58 59 62 63 64 61 56 51 44 40 40 35 27 23 20 19 20 12 7 14 21 21 17 11 7 3 350 338 341 129 138 137 132 126 124 125 127 128 127 125 124 127 130 131 130 130 131 132 133 136 139 142 145 148 150 152 153 153 155 155 154 160 168 170 169 174 179 184 195
313 299 298 316 27 91 76 30 25 14 4 28 68 78 77 84 83 72 66 65 65 65 60 54 50 44 41 45 45 40 32 23 18 19 16 8 9 20 28 31 28 27 23 1 345 347 8 27 41 80 98 114 123 123 121 121 125 129 129 128 127 125 126 128 130 132 136 139 141 145 148 149 150 150 150 151 150 150 155 166 173 176 179 186 196 205
293 272 274 284 93 97 77 40 32 22 7 26 50 62 67 74 79 75 70 67 64 62 59 54 51 47 42 41 44 46 42 30 17 13 11 0 355 5 16 28 44 57 60 32 0 8 33 34 29 73 91 98 106 108 109 114 119 120 117 116 118 121 121 122 124 127 130 132 135 138 140 144 149 149 146 143 139 139 145 158 173 179 182 194 207 218
292 287 298 260 146 100 85 68 61 70 57 26 45 56 61 66 74 76 74 69 64 62 62 60 56 52 46 43 42 42 42 36 20 16 19 357 331 341 359 359 30 70 80 99 156 101 94 97 106 103 93 86 90 96 101 104 105 104 105 109 114 118 120 123 124 126 130 136 141 144 146 150 151 144 142 145 143 139 139 146 165 182 190 202 216 225
301 323 346 20 81 80 98 119 94 85 110 91 59 60 60 60 69 73 71 69 66 61 60 59 55 52 49 46 42 38 36 32 22 25 32 9 327 338 356 325 309 119 132 157 159 121 101 93 84 81 82 84 88 91 93 94 96 99 104 108 113 117 123 127 129 133 144 150 148 148 154 158 147 137 140 149 151 147 142 137 139 156 174 192 211 221
Height
707 724 730 728 726 721 717 714 713 711 711 712 710 711 713 714 713 706 704 697 694 716 723 720 724 725 728 724 714 713 714 717 722 723 726 728 729 731 734 736 737 740 739 738 742 745 747 751 754 757 760 763 765 768 770 773 776 779 782 784 787 789 791 793 795 798 800 801 803 805 806 808 809 811 813 814 815 816 817 818 818 818 820 821 822 823
709 728 726 715 714 709 707 706 706 708 709 711 711 710 707 707 707 699 699 694 690 713 722 715 723 724 723 725 717 713 717 719 720 722 725 725 727 729 732 735 735 736 735 735 740 742 744 748 751 755 758 760 763 765 768 771 774 777 780 782 785 787 789 791 793 795 797 799 801 802 804 806 808 809 811 812 814 815 816 816 817 817 819 820 821 822
720 724 713 703 701 702 703 701 703 709 709 711 711 713 711 703 703 700 695 690 690 713 722 715 723 724 716 719 722 719 718 716 713 715 719 720 724 727 729 733 733 734 735 735 737 739 741 744 747 751 755 758 761 763 766 769 772 776 778 780 782 785 787 789 791 793 795 797 799 801 802 804 806 807 809 811 812 814 815 816 816 816 818 819 821 822
725 716 701 695 694 699 704 701 703 708 708 710 710 716 715 701 704 711 704 694 690 704 715 714 722 723 713 714 719 718 713 710 709 709 711 713 719 722 724 727 730 732 734 735 735 736 738 741 744 748 751 755 758 761 764 767 770 773 775 777 779 782 784 786 789 791 793 795 797 800 801 803 804 806 807 809 811 812 814 815 815 815 817 818 820 821
712 699 688 691 693 697 704 703 702 708 711 709 706 710 711 700 700 703 700 695 692 699 704 712 731 730 718 719 717 710 708 709 709 709 710 710 712 715 718 720 723 726 729 732 733 733 735 737 740 744 748 752 755 757 760 763 766 769 772 774 777 779 782 784 786 789 791 794 796 798 800 802 803 804 806 807 809 810 812 813 814 814 816 817 819 820
701 686 680 691 695 694 702 704 700 705 712 711 702 698 699 696 693 691 693 699 710 720 709 713 750 749 721 720 718 708 711 714 710 710 713 712 710 713 716 718 719 721 724 726 728 729 731 734 737 741 745 749 751 754 757 760 763 766 769 772 775 777 779 782 784 786 789 791 793 795 797 799 800 802 803 804 806 808 810 811 813 814 815 816 817 818
691 679 677 688 693 694 700 701 694 696 710 714 697 687 689 691 690 690 695 704 720 729 711 708 746 755 730 722 716 709 716 720 717 718 714 711 711 712 714 715 716 718 719 722 724 725 727 731 734 738 742 746 749 751 755 758 761 764 767 769 772 774 776 779 782 784 787 789 791 793 794 796 798 799 801 803 805 806 808 810 811 812 813 814 816 817
683 682 681 682 688 695 699 699 689 687 706 709 686 679 687 690 692 690 693 703 706 709 709 705 723 745 741 726 711 707 717 722 722 724 717 710 710 709 710 710 711 713 714 718 722 723 724 727 731 734 738 742 746 749 752 756 758 761 764 766 769 771 774 776 779 781 784 786 788 790 792 794 796 797 799 801 803 804 806 808 809 810 811 812 814 816
676 684 686 681 689 695 692 689 681 681 697 695 676 676 681 684 690 687 689 696 693 705 725 713 710 740 746 722 707 706 716 724 723 722 717 712 708 706 706 706 707 708 709 712 717 719 719 722 727 731 735 740 744 747 749 752 756 758 761 764 766 769 771 773 776 778 781 783 785 788 790 792 794 796 797 799 801 803 804 806 807 808 809 810 812 814
671 672 673 675 685 689 683 677 673 678 688 680 672 676 676 678 683 686 692 695 694 713 729 712 706 738 748 724 712 713 716 722 719 715 715 711 705 702 701 702 703 704 706 708 711 713 714 718 724 729 733 737 741 744 747 750 753 756 758 762 764 766 768 770 773 776 778 780 783 785 787 789 791 793 795 797 799 800 802 804 805 806 807 809 810 812
667 657 659 667 674 673 671 669 667 671 675 673 676 683 686 684 680 683 689 694 710 724 717 702 698 724 745 729 712 711 708 706 706 705 709 706 700 697 697 698 699 700 703 705 706 707 709 713 720 727 731 734 738 741 744 747 749 753 755 758 761 763 765 767 770 773 775 778 780 782 784 786 789 791 792 794 796 798 800 801 803 804 806 807 809 810
672 667 663 660 661 661 666 670 667 664 666 673 681 690 701 703 695 696 696 699 725 734 713 698 690 707 735 725 702 697 691 687 692 694 696 697 693 692 693 693 693 696 699 700 703 705 707 712 716 722 727 730 734 737 739 743 746 749 752 755 757 760 763 765 767 770 772 775 777 779 781 784 786 788 790 791 793 795 797 799 801 802 804 805 807 809
679 675 665 657 656 657 668 680 679 670 668 676 684 695 715 726 725 730 726 718 727 726 704 692 692 701 713 700 686 686 680 677 679 679 681 684 685 687 688 689 689 692 695 697 700 703 705 710 713 715 720 724 728 732 735 738 741 744 747 750 753 756 759 761 764 766 769 772 774 776 778 781 783 785 787 789 791 792 794 796 798 799 801 803 805 807
689 679 665 663 662 655 662 681 691 684 678 684 690 700 718 731 743 750 741 727 722 712 689 680 693 705 700 682 672 675 671 667 666 667 670 672 676 682 684 685 688 690 693 694 696 699 702 705 707 709 712 717 722 726 730 734 737 740 743 745 749 752 755 758 760 763 766 768 771 773 775 778 780 782 784 786 788 790 791 793 795 797 799 801 802 804
699 694 673 668 666 658 660 668 677 679 681 684 679 688 705 713 729 740 734 729 725 711 692 685 697 708 701 678 659 658 658 657 659 659 662 665 669 676 680 683 687 688 690 692 693 694 696 698 701 705 708 712 716 721 726 729 733 736 739 741 745 748 751 754 756 759 762 765 767 770 772 775 777 779 781 783 785 787 789 790 793 795 796 798 800 802
691 689 662 655 654 653 661 660 659 672 684 678 668 683 696 690 700 714 711 709 711 712 704 695 693 687 675 658 644 649 653 652 656 657 659 666 667 671 679 681 684 686 686 687 689 691 692 693 696 701 704 708 712 717 721 724 728 731 735 738 741 744 747 750 752 755 758 761 764 767 769 772 774 776 778 780 782 784 786 788 790 792 794 796 798 801
685 680 651 648 651 646 655 657 655 670 682 675 673 685 679 666 680 704 707 696 701 718 710 692 686 674 665 658 646 650 658 655 656 658 659 664 665 669 675 677 679 681 681 683 684 686 688 690 692 695 699 703 707 712 716 719 722 726 729 733 737 741 744 746 748 751 754 757 761 763 766 768 771 773 775 777 779 781 783 785 787 790 792 794 796 798
670 675 649 644 657 646 640 651 654 656 664 672 678 674 664 665 674 690 708 709 714 727 709 688 690 687 685 680 657 653 663 661 658 658 659 661 663 666 669 671 674 675 677 679 679 682 684 687 689 691 693 697 701 706 710 715 718 722 725 729 732 736 739 742 744 746 750 753 757 760 762 765 767 769 772 774 776 778 781 783 785 787 789 792 794 796
656 675 656 636 649 645 634 653 666 656 651 659 661 653 661 685 692 691 704 714 723 730 713 694 692 689 685 676 660 658 664 662 658 658 660 661 662 663 664 667 670 671 673 675 676 678 681 683 685 686 689 693 697 702 707 712 716 719 722 725 728 732 734 738 740 743 746 749 752 756 758 761 764 766 769 771 773 775 777 779 781 784 787 789 791 793
648 673 670 637 632 640 641 657 674 668 656 654 654 650 654 671 684 688 690 697 712 723 716 706 700 688 671 656 651 654 653 655 659 658 659 659 657 658 660 664 667 668 669 668 669 672 674 677 679 681 686 690 694 700 704 709 713 715 718 722 725 729 731 734 737 739 742 745 748 752 754 757 760 763 765 767 770 772 774 776 779 781 783 786 788 790
647 664 674 648 630 641 652 654 661 666 665 667 671 669 663 661 669 679 679 678 694 711 714 713 709 688 656 638 639 641 640 644 650 654 657 655 652 651 652 656 660 661 661 660 661 663 666 669 672 676 683 688 693 698 701 705 708 711 714 717 720 724 727 730 732 734 737 741 744 748 750 753 756 759 762 764 766 768 771 773 776 778 780 782 785 787
650 659 668 660 646 649 649 638 639 649 654 661 669 670 667 664 669 687 692 675 674 692 700 704 708 684 644 627 630 631 632 635 639 647 652 652 651 647 643 646 651 652 653 653 654 658 661 664 668 672 679 685 689 693 696 699 703 706 709 712 715 719 722 724 727 729 733 736 740 743 745 749 752 755 758 760 763 765 768 770 772 775 777 779 781 784
638 650 662 663 651 643 634 623 628 637 639 646 653 655 659 659 662 683 695 681 672 681 682 685 698 679 636 620 624 624 624 627 631 638 644 646 646 643 639 639 642 644 647 649 651 655 657 659 663 667 673 679 683 687 691 694 697 699 702 706 710 713 716 719 722 725 729 733 736 739 742 745 748 751 754 756 759 761 764 767 769 771 774 776 778 780
633 648 661 664 652 638 626 618 621 627 635 647 648 643 649 654 652 658 665 667 675 681 677 683 698 680 638 619 621 620 620 623 626 630 636 639 639 636 634 635 638 641 643 647 651 652 653 655 659 663 668 673 677 682 686 689 692 694 698 701 704 707 711 714 718 721 725 728 732 735 738 741 743 746 749 752 755 757 760 763 765 768 770 773 775 777
637 649 658 670 673 667 654 642 638 637 639 648 648 641 642 646 648 651 650 656 672 673 668 683 695 674 640 625 624 623 623 624 624 625 628 632 633 631 629 631 637 641 644 648 650 651 652 655 658 661 664 667 672 677 681 685 689 691 693 696 698 702 706 709 713 717 720 724 727 730 733 736 739 742 744 748 750 753 756 759 761 764 767 769 771 773
632 644 651 667 681 684 678 664 653 648 643 644 645 643 641 640 646 654 657 666 676 669 663 675 679 658 637 632 632 629 628 628 626 626 626 627 628 628 629 633 637 640 643 646 647 649 651 652 655 657 659 663 668 673 677 682 686 688 691 693 694 697 701 705 709 712 715 719 722 725 728 731 734 737 740 743 746 749 752 755 757 760 763 766 768 770
627 636 640 653 661 661 661 650 636 635 642 647 647 645 643 640 639 647 660 669 669 666 667 664 660 655 647 639 637 633 630 630 630 629 627 626 626 626 630 636 638 638 641 642 643 646 648 650 652 653 656 659 663 668 673 677 681 684 687 690 692 694 697 700 704 707 710 714 717 720 723 726 729 732 735 739 742 745 748 751 753 756 759 762 764 766
630 636 633 642 647 641 639 635 625 626 635 640 641 643 643 639 637 643 655 657 654 666 676 659 650 659 654 639 636 634 629 629 629 628 628 627 627 627 630 636 639 639 640 642 644 646 647 649 650 651 653 655 659 664 668 672 676 680 683 686 689 691 693 696 699 702 705 709 712 715 717 721 725 728 732 735 738 741 744 746 749 752 755 758 760 763
631 638 629 631 640 637 632 629 624 623 628 630 632 636 638 638 640 642 644 643 646 662 668 653 649 658 651 638 633 629 626 627 626 625 625 625 626 627 632 639 642 642 642 642 644 645 645 647 648 650 652 653 657 661 664 669 672 675 679 682 684 687 689 692 695 698 701 704 707 710 713 718 722 725 728 731 734 737 740 742 746 748 751 753 756 759
630 639 632 630 635 634 632 631 627 624 627 628 625 625 628 632 635 637 638 636 638 646 645 641 649 651 641 635 630 622 620 621 620 622 623 625 627 629 634 639 641 644 645 644 643 643 644 645 646 648 651 652 656 659 661 665 667 670 674 676 680 683 685 688 691 694 697 700 703 707 711 715 718 721 724 727 729 732 735 739 742 745 747 749 752 755
631 641 635 633 640 638 629 628 629 629 632 633 628 621 622 627 629 632 636 635 636 639 635 637 650 649 634 627 624 621 619 619 622 626 625 625 626 627 632 634 636 639 641 642 642 642 642 643 644 647 649 651 653 656 659 662 665 668 670 672 676 678 680 684 687 690 693 696 700 704 708 711 714 717 720 723 725 729 732 736 739 742 744 746 749 752
631 641 634 637 653 648 630 627 631 629 633 639 636 628 626 629 628 624 625 628 634 640 639 642 651 647 631 622 622 622 621 622 625 626 625 624 622 624 628 629 629 631 633 635 637 638 639 641 642 644 646 647 649 653 657 660 664 667 668 668 671 674 677 680 682 686 690 693 697 701 704 707 711 714 717 719 723 726 730 733 736 739 742 744 747 749
628 639 638 644 658 652 634 630 630 634 647 649 636 626 625 626 624 620 619 621 624 631 641 646 642 633 624 621 624 625 624 625 624 622 623 623 621 622 623 623 623 625 627 631 632 633 635 635 636 638 640 642 645 648 651 655 660 663 665 667 668 671 674 676 679 683 687 690 695 698 701 705 708 711 715 718 721 725 728 731 734 736 739 741 744 746
625 634 639 643 653 653 641 634 639 654 663 646 619 613 619 620 620 622 624 621 617 617 623 628 626 621 620 621 624 625 623 621 619 616 616 617 619 622 621 620 619 619 621 625 627 627 629 630 630 632 634 637 640 643 647 652 656 660 664 667 668 669 671 673 676 680 684 688 692 695 699 702 705 709 713 716 720 723 726 729 731 733 736 739 741 743
625 632 637 638 644 648 641 644 664 672 653 626 609 607 610 611 613 616 617 613 610 609 613 620 622 618 616 616 617 619 618 615 613 611 610 611 613 616 618 618 617 616 616 618 621 623 624 626 628 629 630 634 637 640 645 648 652 657 661 665 666 667 668 670 673 677 681 685 689 693 697 700 704 708 711 714 718 721 724 727 728 731 734 737 739 740
621 630 633 634 640 645 647 656 670 661 632 617 615 609 605 610 614 620 623 616 607 605 611 621 623 618 617 615 611 612 613 611 610 610 609 607 607 608 611 612 611 612 612 612 615 618 618 619 621 624 626 630 633 637 641 644 648 653 657 661 664 665 666 668 671 675 679 682 686 690 694 698 702 705 709 712 716 720 723 725 727 730 733 735 737 738
615 625 629 633 636 642 653 657 653 647 638 630 623 613 610 615 616 622 634 628 611 605 612 620 624 623 622 619 614 614 613 612 615 613 607 604 604 603 603 604 604 606 606 605 607 609 610 611 613 616 621 625 629 633 636 639 644 649 653 658 660 662 664 666 669 673 676 680 684 689 693 697 700 704 708 711 715 719 723 725 727 729 732 734 736 737
613 620 629 638 635 636 652 658 654 659 657 641 626 614 607 611 610 614 634 638 620 612 617 623 625 626 624 622 621 620 621 626 629 619 604 599 600 600 601 601 600 601 602 601 602 603 605 606 608 611 616 620 625 628 631 635 640 645 650 654 656 659 661 663 667 671 676 680 684 688 692 696 700 704 707 711 715 719 722 724 727 729 731 733 735 736
616 617 625 639 637 634 650 661 659 659 650 633 622 613 607 610 608 614 640 648 628 617 620 623 625 626 626 626 623 622 631 642 640 621 602 594 594 595 599 599 596 596 596 596 597 598 599 600 602 606 610 615 620 624 626 631 636 642 647 650 653 656 658 661 666 671 675 680 683 688 692 696 700 703 706 710 713 716 719 721 724 727 729 731 733 735
626 625 630 642 642 636 646 655 650 643 637 626 619 613 610 608 611 633 664 659 632 623 625 625 627 627 625 626 624 625 634 641 635 618 601 593 592 593 594 594 593 592 591 592 593 593 595 598 600 603 607 612 616 620 623 627 633 639 644 648 651 653 655 659 664 669 674 678 682 687 691 694 698 701 703 707 710 713 716 719 722 724 726 729 731 733
633 631 632 640 645 643 650 657 649 638 630 623 617 612 609 612 627 652 666 647 627 626 625 622 626 626 624 626 627 627 628 624 619 611 601 596 598 596 592 590 589 589 588 588 590 592 595 599 602 604 607 611 615 618 621 625 631 638 644 647 649 650 653 657 662 667 672 676 680 685 689 692 695 698 701 704 707 710 714 718 720 722 724 727 729 731
638 637 635 638 643 644 647 653 655 645 625 612 611 608 609 628 649 650 638 627 624 625 622 621 624 623 622 625 626 626 623 615 611 610 605 601 601 600 597 591 588 590 590 586 586 589 592 597 601 604 607 610 614 617 619 623 630 637 643 646 647 649 651 655 659 664 669 673 678 683 687 691 695 698 701 704 706 709 712 716 719 720 722 725 727 729
634 635 637 636 636 641 648 654 662 656 625 604 611 617 617 632 643 632 621 622 623 621 623 625 624 622 625 626 625 624 622 618 615 614 610 606 602 601 602 598 593 594 596 592 590 589 591 595 599 602 605 608 611 614 617 622 630 636 640 644 646 648 650 654 658 663 668 673 678 683 687 691 695 699 702 704 706 709 711 714 716 718 721 724 725 728
637 636 638 632 626 636 650 649 643 635 613 598 611 624 624 624 624 621 623 625 622 623 627 628 627 627 627 628 627 625 623 622 619 617 615 611 605 602 603 601 596 596 597 597 596 594 594 597 600 602 605 607 609 613 617 623 629 635 639 642 644 647 649 653 658 663 668 673 678 682 686 690 694 698 701 703 706 709 711 713 715 717 720 723 724 727
649 644 643 636 625 627 636 630 616 610 605 602 609 618 619 618 618 618 623 626 626 628 629 631 635 634 631 630 630 627 626 626 624 624 625 622 615 610 608 605 601 598 596 597 599 599 599 601 602 603 605 607 609 613 618 624 629 634 637 641 643 646 649 653 658 663 668 673 677 681 685 689 693 697 698 701 704 707 710 713 715 716 719 722 724 726
648 641 639 639 631 624 627 623 614 612 611 607 609 612 613 617 620 621 624 628 629 628 630 635 638 637 636 637 636 635 635 633 632 634 635 631 626 621 618 615 612 608 606 604 603 602 602 603 605 606 607 609 611 615 620 626 631 634 637 641 644 647 650 654 658 663 668 673 677 681 684 688 692 694 696 698 701 705 709 713 714 716 719 721 724 726
650 646 646 644 637 637 641 637 632 633 628 618 616 617 616 619 625 627 630 632 631 631 634 637 638 638 639 640 641 643 643 639 639 640 639 636 633 628 625 625 624 620 620 622 619 613 608 606 607 609 610 612 615 618 624 629 633 637 640 643 646 649 652 655 659 664 669 673 677 681 684 687 689 691 693 694 696 700 707 712 714 716 719 721 723 726
659 658 657 649 640 644 652 648 644 649 645 632 628 629 628 629 633 635 636 637 637 638 640 641 641 642 642 642 643 646 646 645 645 644 641 640 638 634 630 630 628 626 629 635 637 632 625 622 621 621 621 622 622 623 627 632 637 640 642 644 647 650 653 657 661 665 670 674 678 681 685 688 690 692 694 695 695 697 703 709 713 715 717 720 722 724
664 663 658 648 642 646 652 652 650 657 658 649 639 637 636 637 640 641 642 642 644 645 646 646 647 647 647 646 645 646 649 651 650 648 646 644 642 640 637 634 631 630 634 640 645 644 641 640 641 639 635 632 629 629 632 636 639 641 642 645 648 651 655 659 663 667 671 675 678 683 686 689 692 693 695 697 697 698 702 708 712 714 716 718 720 722
667 665 654 646 648 652 657 657 655 661 668 663 652 647 646 645 644 646 647 648 650 651 651 652 652 651 651 651 649 651 653 654 652 650 650 649 648 645 643 641 637 635 638 643 648 648 646 647 647 643 638 635 634 636 638 640 641 643 645 648 652 654 658 662 665 669 673 676 680 684 686 688 691 693 694 696 698 699 703 708 712 714 716 717 719 721
668 664 656 652 654 657 658 657 655 658 665 664 657 654 653 650 649 651 652 653 655 655 655 656 657 656 656 656 656 656 657 656 655 654 653 656 656 653 651 651 648 643 644 647 648 647 646 646 644 640 638 638 640 641 642 643 645 647 650 653 656 659 662 664 667 671 674 677 680 683 685 687 690 692 694 696 698 700 704 708 712 714 715 717 718 720